Location: Beneden-Haastrecht
(52.0012°N, 4.7557°E)
Time: 02:50:34
(UTC+00:00)

Cosmos 1340 - Pass Details

Date: 24 October 2020
Orbit: 501 x 504 km, 81.2° (Epoch: 27 November)

Event Time Altitude Azimuth Distance (km) Brightness Sun altitude
Rises 17:18:38 0° 355° (N) 2,619 6.2 -8.5°
Reaches altitude 10° 17:21:01 10° 8° (N) 1,730 5.2 -8.9°
Maximum altitude 17:24:18 27° 67° (ENE) 1,003 3.6 -9.4°
Drops below altitude 10° 17:27:33 10° 127° (SE) 1,719 4.9 -9.9°
Sets 17:29:54 0° 140° (SE) 2,599 5.9 -10.2°
